Weather History for Kirksville, MO

Change the Weather History Date:

Wednesday, June 19, 2013

  Actual Average Record
Temperature  
Mean Temperature 72 °F 72 °F  
Max Temperature 83 °F 82 °F 105 °F (1936)
Min Temperature 60 °F 62 °F 49 °F (1935)
Degree Days  
Heating Degree Days 0 0  
Month to date heating degree days 36 12  
Since 1 June heating degree days 36 12  
Since 1 July heating degree days 6071 5852  
Cooling Degree Days 7 7  
Month to date cooling degree days 77 103  
Year to date cooling degree days 145 165  
Since 1 June cooling degree days 77 103  
Growing Degree Days 21 (Base 50)    
Moisture  
Dew Point 62 °F    
Average Humidity 76    
Maximum Humidity 100    
Minimum Humidity 51    
Precipitation  
Precipitation 0.00 in 0.16 in 1.70 in (1939)
Month to date precipitation 1.79 3.38  
Year to date precipitation 26.26 17.53  
Sea Level Pressure  
Sea Level Pressure 30.05 in    
Wind  
Wind Speed 6 mph (ESE)    
Max Wind Speed 12 mph    
Max Gust Speed 15 mph    
Visibility 8 miles    
Events Fog    
T = Trace of Precipitation, MM = Missing Value Source: NWS Daily Summary

Daily Weather History Graph

Daily Weather History Graph

Search for Another Location

Airport:

Trip Planner

Search our weather history database for the weather conditions in past years. The results will help you decide how hot, cold, wet, or windy it might be!

Date:

Astronomy

Jun. 19, 2013 Rise Set
Actual Time 5:40 AM CDT 8:42 PM CDT
Civil Twilight 5:07 AM CDT 9:15 PM CDT
Nautical Twilight 4:26 AM CDT 9:57 PM CDT
Astronomical Twilight 3:37 AM CDT 10:46 PM CDT
Moon 4:35 PM CDT (6/19) 2:25 AM CDT (6/19)
Length of Visible Light 16h 07m
Length of Day
15h 01m
Waxing Gibbous, 80% of the Moon is Illuminated
Jun 19
Waxing Gibbous
Jun 23
Full
Jun 29
Last Quarter
Jul 8
New
Jul 15
First Quarter

Hourly Weather History & Observations

Time (CDT) Temp. Heat Index Dew Point Humidity Pressure Visibility Wind Dir Wind Speed Gust Speed Precip Events Conditions
12:15 AM 60.8 °F - 60.8 °F 100% 30.03 in 0.5 mi Calm Calm - N/A Fog Fog
12:36 AM 60.8 °F - 60.8 °F 100% 30.03 in 1.0 mi Calm Calm - N/A   Mist
12:40 AM 60.8 °F - 60.8 °F 100% 30.03 in 2.0 mi Calm Calm - N/A   Partly Cloudy
12:45 AM 60.8 °F - 60.8 °F 100% 30.03 in 1.0 mi North 3.5 mph - N/A   Mist
12:49 AM 60.8 °F - 60.8 °F 100% 30.03 in 0.8 mi North 3.5 mph - N/A   Clear
12:55 AM 60.1 °F - 60.1 °F 100% 30.02 in 0.8 mi NNE 3.5 mph - N/A   Clear
1:05 AM 60.8 °F - 60.8 °F 100% 30.03 in 2.5 mi Calm Calm - N/A   Clear
1:12 AM 60.8 °F - 60.8 °F 100% 30.03 in 7.0 mi Calm Calm - N/A   Clear
1:19 AM 60.8 °F - 60.8 °F 100% 30.04 in 0.8 mi Calm Calm - N/A   Clear
1:29 AM 60.8 °F - 60.8 °F 100% 30.04 in 2.0 mi Calm Calm - N/A   Clear
1:36 AM 62.6 °F - 62.6 °F 100% 30.04 in 10.0 mi NE 3.5 mph - N/A   Clear
1:55 AM 61.0 °F - 61.0 °F 100% 30.04 in 10.0 mi NE 3.5 mph - N/A   Clear
2:55 AM 64.0 °F - 62.1 °F 93% 30.04 in 10.0 mi East 3.5 mph - N/A   Clear
3:55 AM 64.0 °F - 61.0 °F 90% 30.04 in 10.0 mi ESE 3.5 mph - N/A   Clear
4:55 AM 63.0 °F - 61.0 °F 93% 30.05 in 10.0 mi East 4.6 mph - N/A   Clear
5:55 AM 62.1 °F - 60.1 °F 93% 30.07 in 7.0 mi East 3.5 mph - N/A   Clear
6:55 AM 63.0 °F - 61.0 °F 93% 30.08 in 10.0 mi East 6.9 mph - N/A   Clear
7:55 AM 66.0 °F - 62.1 °F 87% 30.09 in 10.0 mi ESE 5.8 mph - N/A   Partly Cloudy
8:55 AM 69.1 °F - 62.1 °F 78% 30.10 in 10.0 mi ESE 6.9 mph - N/A   Clear
9:55 AM 73.0 °F - 63.0 °F 71% 30.09 in 10.0 mi East 4.6 mph - N/A   Clear
10:55 AM 77.0 °F - 66.0 °F 69% 30.10 in 10.0 mi SE 4.6 mph - N/A   Clear
11:55 AM 79.0 °F - 64.9 °F 62% 30.09 in 10.0 mi SSE 6.9 mph - N/A   Clear
12:55 PM 81.0 °F 82.5 °F 64.0 °F 56% 30.08 in 10.0 mi SE 10.4 mph - N/A   Clear
1:55 PM 81.0 °F 82.5 °F 64.0 °F 56% 30.06 in 10.0 mi SSE 10.4 mph - N/A   Partly Cloudy
2:55 PM 82.0 °F 83.4 °F 64.0 °F 54% 30.04 in 10.0 mi SE 4.6 mph - N/A   Clear
3:55 PM 82.9 °F 84.0 °F 63.0 °F 51% 30.04 in 10.0 mi SSE 5.8 mph - N/A   Clear
4:55 PM 81.0 °F 82.2 °F 63.0 °F 54% 30.04 in 10.0 mi SE 4.6 mph - N/A   Clear
5:55 PM 80.1 °F 81.2 °F 62.1 °F 54% 30.03 in 10.0 mi SSE 5.8 mph - N/A   Clear
6:55 PM 80.1 °F 81.5 °F 63.0 °F 56% 30.02 in 10.0 mi ESE 8.1 mph - N/A   Clear
7:55 PM 77.0 °F - 64.9 °F 66% 30.02 in 10.0 mi ESE 5.8 mph - N/A   Clear
8:55 PM 73.0 °F - 63.0 °F 71% 30.02 in 10.0 mi East 4.6 mph - N/A   Clear
9:55 PM 71.1 °F - 63.0 °F 75% 30.04 in 10.0 mi ESE 5.8 mph - N/A   Clear
10:55 PM 70.0 °F - 62.1 °F 76% 30.04 in 10.0 mi ESE 5.8 mph - N/A   Clear
11:55 PM 68.0 °F - 62.1 °F 81% 30.06 in 10.0 mi SE 4.6 mph - N/A   Clear